Regional Weather Roundup
Issued by NWS

Home | Current Version | Previous Version | Text Only | Print | Product List | Glossary On
Versions: 1 2 3 4 5 6 7 8 9 10 11 12 13 14 15 16 17 18 19 20 21 22 23 24 25 26 27 28 29 30 31 32 33 34 35 36 37 38 39 40 41 42 43 44 45 46 47 48 49 50
000
ASUS43 KBIS 231610
RWRND

NORTH DAKOTA REGIONAL WEATHER ROUNDUP
NATIONAL WEATHER SERVICE BISMARCK ND
1100 AM CDT SAT JUL 23 2016

NOTE: "FAIR" INDICATES FEW OR NO CLOUDS BELOW 12,000 FEET WITH NO
SIGNIFICANT WEATHER AND/OR OBSTRUCTIONS TO VISIBILITY.


NDZ001>003-009>011-017-231700-
NORTHWEST NORTH DAKOTA

CITY           SKY/WX    TMP DP  RH WIND       PRES   REMARKS
WILLISTON      SUNNY     76  55  48 NW12      29.84S
MINOT          CLOUDY    70  65  84 NW7       29.79R
MINOT AFB      DRIZZLE   67  64  91 NW8       29.79R
$$

NDZ018>021-031>035-040>046-231700-
SOUTHWEST NORTH DAKOTA

CITY           SKY/WX    TMP DP  RH WIND       PRES   REMARKS
BISMARCK       CLOUDY    70  65  84 NE16      29.78S
DICKINSON      MOSUNNY   70  62  76 NW9       29.85S
GARRISON         N/A     70  65  84 CALM      29.80R
HETTINGER ARPT MOSUNNY   77  61  57 NW28G36   29.87R
$$

NDZ004>008-012>016-024-026-027-054-231700-
NORTHEAST NORTH DAKOTA

CITY           SKY/WX    TMP DP  RH WIND       PRES   REMARKS
GRAND FORKS    LGT RAIN  70  66  87 N14       29.80S
GRND FRKS AFB  LGT RAIN  67  65  93 N17G23    29.80F
DEVILS LAKE    RAIN      66  64  94 NE23      29.73F
$$

NDZ022-023-025-028>030-036>039-047>053-231700-
SOUTHEAST NORTH DAKOTA

CITY           SKY/WX    TMP DP  RH WIND       PRES   REMARKS
FARGO          CLOUDY    82  68  62 E10       29.71F
JAMESTOWN      TSTM      67  64  90 NW23G36   29.81R FOG
$$





USA.gov is the U.S. government's official web portal to all federal, state and local government web resources and services.